Location: Altenst�hlen
(53.5567°N, 8.9425°E)
Time: 06:06:21
(UTC+00:00)

Starlink (trailer) - Pass Details

Date: 23 October 2019
Orbit: 549 x 551 km, 53.0° (Epoch: 18 November)

Event Time Altitude Azimuth Distance (km) Brightness Sun altitude
Rises 18:24:32 0° 281° (W) 2,721 8.8 -20.5°
Reaches altitude 10° 18:26:47 10° 278° (W) 1,827 7.5 -20.8°
Maximum altitude 18:30:53 62° 198° (SSW) 620 3.8 -21.4°
Enters shadow 18:31:22 57° 162° (SSE) 651 3.7 -21.5°
